Voltar ao catálogo

STARLINK-36555

AtivoComunicaçõesVLEO
NORAD 67497·PAYLOAD·🇺🇸 United States

Lançado Jan 18, 2026 de Cape Canaveral Space Force Station

Loading…

Próximas Passagens (próximas 24 horas)

TLE

AtualizadoSource: CelesTrak SupGP

Época: Sep 14, 2026, 21:36 UTC

1 67497C 26012E   26257.90048611 -.00020700  00000+0 -74968-3 0  2579
2 67497  43.0013 326.0672 0001515 269.4187 198.6573 15.27592202    16

Acompanhe STARLINK-36555 em tempo real com AllMySat

Download on the App Store